MMC YSSY-YPAD

Flight info

Callsign MMC
Flight time 1h 39m
Altitude 40000
Route KADOM H44 MAXEM Q60 KAKLU H309 AD
Aircraft LJ35/M-VGDW/C

Departure

Time 2026-04-24 20:19
Airport Sydney Kingsford Smith International Airport (YSSY)

Arrival

Time 2026-04-24 21:59
Airport Adelaide International Airport (YPAD)
Time Latitude Longitude Altitude Speed Heading
2026-04-24 20:04 -33.93450 151.18830 24 ft 0 kts 191°
2026-04-24 20:13 -33.93467 151.18828 26 ft 6 kts 167°
2026-04-24 20:14 -33.93510 151.18852 24 ft 10 kts 189°
2026-04-24 20:14 -33.93588 151.18826 25 ft 14 kts 228°
2026-04-24 20:14 -33.93621 151.18700 24 ft 18 kts 253°
2026-04-24 20:14 -33.93660 151.18534 24 ft 24 kts 254°
2026-04-24 20:15 -33.93710 151.18324 27 ft 28 kts 254°
2026-04-24 20:15 -33.93765 151.18089 24 ft 30 kts 254°
2026-04-24 20:15 -33.93822 151.17849 24 ft 25 kts 255°
2026-04-24 20:15 -33.93910 151.17781 25 ft 19 kts 168°
2026-04-24 20:16 -33.94079 151.17825 23 ft 31 kts 168°
2026-04-24 20:16 -33.94310 151.17884 24 ft 35 kts 168°
2026-04-24 20:16 -33.94513 151.17879 25 ft 27 kts 178°
2026-04-24 20:16 -33.94715 151.17931 26 ft 35 kts 168°
2026-04-24 20:17 -33.94966 151.17996 24 ft 32 kts 167°
2026-04-24 20:17 -33.95143 151.17864 24 ft 16 kts 257°
2026-04-24 20:17 -33.95146 151.17850 24 ft 0 kts 257°
2026-04-24 20:18 -33.95149 151.17741 24 ft 16 kts 315°
2026-04-24 20:18 -33.94984 151.17691 22 ft 52 kts 347°
2026-04-24 20:18 -33.94335 151.17523 26 ft 138 kts 347°
2026-04-24 20:19 -33.93242 151.17237 544 ft 177 kts 345°
2026-04-24 20:19 -33.91967 151.16721 1215 ft 210 kts 328°
2026-04-24 20:19 -33.90908 151.15371 1923 ft 238 kts 302°
2026-04-24 20:19 -33.90046 151.13544 2658 ft 262 kts 299°
2026-04-24 20:20 -33.89170 151.11646 3982 ft 262 kts 302°
2026-04-24 20:20 -33.88187 151.09775 5517 ft 268 kts 304°
2026-04-24 20:20 -33.87138 151.07882 6993 ft 275 kts 304°
2026-04-24 20:20 -33.86082 151.05933 8387 ft 281 kts 303°
2026-04-24 20:21 -33.85009 151.03921 9742 ft 290 kts 302°
2026-04-24 20:21 -33.83934 151.01843 11036 ft 296 kts 297°
2026-04-24 20:21 -33.83279 150.99473 12230 ft 304 kts 282°
2026-04-24 20:21 -33.82902 150.96944 13510 ft 311 kts 278°
2026-04-24 20:22 -33.82520 150.94344 14732 ft 320 kts 280°
2026-04-24 20:22 -33.82044 150.91709 15952 ft 326 kts 282°
2026-04-24 20:22 -33.81545 150.89019 17188 ft 332 kts 281°
2026-04-24 20:22 -33.81070 150.86282 18461 ft 337 kts 280°
2026-04-24 20:23 -33.80594 150.83497 19544 ft 344 kts 280°
2026-04-24 20:23 -33.80095 150.80651 20605 ft 351 kts 281°
2026-04-24 20:23 -33.79581 150.77750 21668 ft 358 kts 280°
2026-04-24 20:23 -33.79061 150.74793 22745 ft 365 kts 280°
2026-04-24 20:24 -33.78710 150.72797 23462 ft 370 kts 280°
2026-04-24 20:24 -33.77994 150.68737 24743 ft 379 kts 280°
2026-04-24 20:24 -33.77434 150.65575 25682 ft 384 kts 279°
2026-04-24 20:24 -33.76874 150.62412 26611 ft 390 kts 279°
2026-04-24 20:25 -33.76308 150.59210 27516 ft 395 kts 279°
2026-04-24 20:25 -33.75732 150.55964 28403 ft 400 kts 279°
2026-04-24 20:25 -33.75145 150.52664 29259 ft 406 kts 278°
2026-04-24 20:25 -33.74558 150.49371 30084 ft 411 kts 278°
2026-04-24 20:26 -33.73956 150.45995 30821 ft 416 kts 278°
2026-04-24 20:26 -33.73346 150.42580 31504 ft 420 kts 278°
2026-04-24 20:26 -33.72729 150.39133 32151 ft 424 kts 278°
2026-04-24 20:26 -33.72105 150.35648 32769 ft 429 kts 278°
2026-04-24 20:27 -33.71489 150.32123 33367 ft 433 kts 276°
2026-04-24 20:27 -33.71266 150.28537 33948 ft 431 kts 265°
2026-04-24 20:27 -33.71515 150.24948 34506 ft 432 kts 259°
2026-04-24 20:27 -33.71847 150.21344 34982 ft 436 kts 260°
2026-04-24 20:28 -33.72162 150.17705 35488 ft 438 kts 260°
2026-04-24 20:28 -33.72469 150.14067 36062 ft 437 kts 260°
2026-04-24 20:28 -33.72781 150.10460 36757 ft 432 kts 260°
2026-04-24 20:28 -33.73094 150.06889 37473 ft 427 kts 260°
2026-04-24 20:29 -33.73298 150.04546 37962 ft 424 kts 260°
2026-04-24 20:29 -33.73696 149.99878 38973 ft 416 kts 260°
2026-04-24 20:29 -33.73988 149.96443 39644 ft 410 kts 259°
2026-04-24 20:29 -33.74278 149.93066 40284 ft 404 kts 259°
2026-04-24 20:30 -33.74568 149.89700 40523 ft 410 kts 259°
2026-04-24 20:30 -33.74865 149.86241 40525 ft 421 kts 259°
2026-04-24 20:30 -33.75363 149.80317 40536 ft 436 kts 260°
2026-04-24 20:31 -33.75979 149.72943 40550 ft 448 kts 260°
2026-04-24 20:31 -33.76602 149.65438 40551 ft 453 kts 260°
2026-04-24 20:32 -33.77231 149.57925 40536 ft 450 kts 260°
2026-04-24 20:32 -33.77837 149.50466 40546 ft 447 kts 260°
2026-04-24 20:33 -33.78445 149.43029 40544 ft 447 kts 260°
2026-04-24 20:33 -33.79039 149.35644 40527 ft 447 kts 260°
2026-04-24 20:34 -33.79636 149.28215 40534 ft 447 kts 260°
2026-04-24 20:34 -33.80228 149.20764 40528 ft 447 kts 260°
2026-04-24 20:35 -33.80815 149.13326 40525 ft 447 kts 261°
2026-04-24 20:35 -33.81397 149.05886 40524 ft 447 kts 261°
2026-04-24 20:36 -33.81976 148.98443 40512 ft 447 kts 261°
2026-04-24 20:36 -33.82549 148.91005 40507 ft 446 kts 261°
2026-04-24 20:37 -33.83118 148.83571 40505 ft 446 kts 261°
2026-04-24 20:37 -33.83681 148.76144 40502 ft 446 kts 261°
2026-04-24 20:38 -33.84239 148.68722 40495 ft 446 kts 261°
2026-04-24 20:38 -33.85152 148.61383 40497 ft 442 kts 254°
2026-04-24 20:39 -33.86369 148.54130 40497 ft 443 kts 255°
2026-04-24 20:39 -33.87561 148.46908 40487 ft 443 kts 255°
2026-04-24 20:40 -33.88771 148.39644 40493 ft 443 kts 255°
2026-04-24 20:40 -33.89966 148.32375 40491 ft 443 kts 255°
2026-04-24 20:41 -33.91163 148.25111 40488 ft 443 kts 255°
2026-04-24 20:41 -33.92352 148.17838 40485 ft 442 kts 255°
2026-04-24 20:42 -33.93538 148.10575 40478 ft 442 kts 255°
2026-04-24 20:42 -33.94718 148.03308 40475 ft 442 kts 255°
2026-04-24 20:43 -33.95893 147.96047 40476 ft 442 kts 255°
2026-04-24 20:43 -33.97064 147.88789 40479 ft 441 kts 255°
2026-04-24 20:44 -33.98232 147.81517 40472 ft 441 kts 255°
2026-04-24 20:44 -33.99384 147.74311 40475 ft 441 kts 256°
2026-04-24 20:45 -34.00542 147.67046 40470 ft 441 kts 256°
2026-04-24 20:45 -34.01694 147.59784 40469 ft 441 kts 256°
2026-04-24 20:46 -34.02843 147.52520 40472 ft 441 kts 256°
2026-04-24 20:46 -34.03986 147.45255 40472 ft 441 kts 256°
2026-04-24 20:47 -34.05126 147.37987 40454 ft 441 kts 256°
2026-04-24 20:47 -34.06259 147.30731 40466 ft 440 kts 256°
2026-04-24 20:48 -34.07387 147.23480 40466 ft 440 kts 256°
2026-04-24 20:48 -34.08511 147.16226 40463 ft 440 kts 256°
2026-04-24 20:49 -34.09631 147.08970 40464 ft 439 kts 256°
2026-04-24 20:49 -34.10743 147.01728 40464 ft 439 kts 256°
2026-04-24 20:50 -34.11853 146.94479 40459 ft 439 kts 256°
2026-04-24 20:50 -34.12957 146.87236 40458 ft 439 kts 256°
2026-04-24 20:51 -34.14056 146.79993 40455 ft 438 kts 256°
2026-04-24 20:51 -34.15148 146.72767 40453 ft 437 kts 257°
2026-04-24 20:52 -34.16229 146.65588 40451 ft 437 kts 257°
2026-04-24 20:52 -34.17312 146.58365 40455 ft 437 kts 257°
2026-04-24 20:53 -34.18390 146.51139 40452 ft 437 kts 257°
2026-04-24 20:53 -34.19466 146.43908 40452 ft 437 kts 257°
2026-04-24 20:54 -34.20537 146.36676 40448 ft 437 kts 257°
2026-04-24 20:54 -34.21602 146.29445 40438 ft 437 kts 257°
2026-04-24 20:55 -34.22664 146.22217 40438 ft 436 kts 257°
2026-04-24 20:55 -34.23718 146.15005 40435 ft 436 kts 257°
2026-04-24 20:56 -34.24768 146.07793 40444 ft 436 kts 257°
2026-04-24 20:56 -34.25680 146.00545 40432 ft 435 kts 258°
2026-04-24 20:57 -34.26599 145.93317 40427 ft 435 kts 259°
2026-04-24 20:57 -34.27478 145.86082 40424 ft 435 kts 259°
2026-04-24 20:58 -34.28371 145.78852 40421 ft 435 kts 259°
2026-04-24 20:58 -34.29243 145.71675 40424 ft 433 kts 259°
2026-04-24 20:59 -34.30120 145.64471 40428 ft 433 kts 259°
2026-04-24 20:59 -34.30990 145.57263 40429 ft 433 kts 259°
2026-04-24 21:00 -34.31856 145.50057 40428 ft 432 kts 259°
2026-04-24 21:00 -34.32717 145.42857 40425 ft 432 kts 259°
2026-04-24 21:01 -34.33573 145.35665 40420 ft 432 kts 259°
2026-04-24 21:01 -34.34424 145.28473 40419 ft 432 kts 259°
2026-04-24 21:02 -34.35269 145.21295 40417 ft 431 kts 259°
2026-04-24 21:02 -34.36110 145.14124 40417 ft 430 kts 259°
2026-04-24 21:03 -34.36946 145.06946 40418 ft 430 kts 260°
2026-04-24 21:03 -34.37778 144.99774 40411 ft 430 kts 260°
2026-04-24 21:04 -34.38605 144.92598 40411 ft 430 kts 260°
2026-04-24 21:04 -34.39428 144.85433 40405 ft 430 kts 260°
2026-04-24 21:05 -34.40240 144.78313 40405 ft 430 kts 260°
2026-04-24 21:05 -34.41053 144.71151 40403 ft 429 kts 260°
2026-04-24 21:06 -34.41861 144.63991 40413 ft 428 kts 260°
2026-04-24 21:06 -34.42664 144.56843 40412 ft 428 kts 260°
2026-04-24 21:07 -34.43463 144.49685 40403 ft 428 kts 260°
2026-04-24 21:07 -34.44257 144.42537 40403 ft 427 kts 260°
2026-04-24 21:08 -34.45047 144.35397 40404 ft 427 kts 260°
2026-04-24 21:08 -34.45830 144.28271 40403 ft 427 kts 260°
2026-04-24 21:09 -34.46609 144.21141 40395 ft 426 kts 260°
2026-04-24 21:09 -34.47379 144.14066 40400 ft 426 kts 261°
2026-04-24 21:10 -34.48147 144.06947 40399 ft 426 kts 261°
2026-04-24 21:10 -34.48913 143.99830 40396 ft 426 kts 261°
2026-04-24 21:11 -34.49675 143.92702 40398 ft 426 kts 261°
2026-04-24 21:11 -34.50433 143.85576 40398 ft 426 kts 261°
2026-04-24 21:12 -34.51057 143.79666 40393 ft 426 kts 261°
2026-04-24 21:12 -34.51934 143.71334 40383 ft 425 kts 261°
2026-04-24 21:13 -34.52676 143.64226 40387 ft 425 kts 261°
2026-04-24 21:13 -34.53416 143.57110 40387 ft 425 kts 261°
2026-04-24 21:14 -34.54151 143.49992 40385 ft 425 kts 261°
2026-04-24 21:14 -34.54876 143.42936 40377 ft 424 kts 261°
2026-04-24 21:15 -34.55602 143.35831 40378 ft 424 kts 261°
2026-04-24 21:15 -34.56323 143.28731 40375 ft 424 kts 261°
2026-04-24 21:16 -34.57039 143.21629 40376 ft 424 kts 261°
2026-04-24 21:16 -34.57755 143.14490 40376 ft 423 kts 261°
2026-04-24 21:17 -34.58459 143.07439 40371 ft 423 kts 261°
2026-04-24 21:17 -34.59047 143.01492 40371 ft 423 kts 261°
2026-04-24 21:18 -34.59748 142.94404 40369 ft 423 kts 262°
2026-04-24 21:18 -34.60442 142.87316 40368 ft 423 kts 262°
2026-04-24 21:19 -34.61133 142.80227 40365 ft 423 kts 262°
2026-04-24 21:19 -34.61815 142.73190 40366 ft 423 kts 262°
2026-04-24 21:20 -34.62833 142.62591 40360 ft 422 kts 262°
2026-04-24 21:21 -34.63505 142.55512 40357 ft 422 kts 263°
2026-04-24 21:21 -34.63909 142.48401 40357 ft 422 kts 264°
2026-04-24 21:22 -34.64327 142.41288 40352 ft 422 kts 264°
2026-04-24 21:22 -34.64724 142.34175 40349 ft 422 kts 265°
2026-04-24 21:23 -34.65124 142.27061 40355 ft 422 kts 265°
2026-04-24 21:23 -34.65516 142.19955 40356 ft 422 kts 265°
2026-04-24 21:24 -34.65906 142.12843 40353 ft 422 kts 265°
2026-04-24 21:24 -34.66291 142.05741 40350 ft 422 kts 265°
2026-04-24 21:25 -34.66671 141.98635 40341 ft 421 kts 265°
2026-04-24 21:25 -34.67048 141.91541 40341 ft 421 kts 265°
2026-04-24 21:26 -34.67419 141.84448 40338 ft 421 kts 265°
2026-04-24 21:26 -34.67786 141.77394 40338 ft 421 kts 265°
2026-04-24 21:27 -34.68149 141.70300 40338 ft 420 kts 265°
2026-04-24 21:27 -34.68508 141.63204 40338 ft 420 kts 265°
2026-04-24 21:28 -34.68864 141.56120 40335 ft 420 kts 265°
2026-04-24 21:28 -34.69215 141.49021 40329 ft 420 kts 265°
2026-04-24 21:29 -34.69562 141.41934 40329 ft 420 kts 265°
2026-04-24 21:29 -34.69905 141.34841 40331 ft 420 kts 265°
2026-04-24 21:30 -34.70244 141.27748 40333 ft 420 kts 266°
2026-04-24 21:30 -34.70577 141.20667 40330 ft 420 kts 266°
2026-04-24 21:31 -34.70907 141.13592 40331 ft 420 kts 266°
2026-04-24 21:31 -34.71231 141.06558 40330 ft 419 kts 266°
2026-04-24 21:32 -34.71552 140.99489 40327 ft 419 kts 266°
2026-04-24 21:32 -34.71869 140.92425 40324 ft 419 kts 266°
2026-04-24 21:33 -34.72182 140.85349 40325 ft 418 kts 266°
2026-04-24 21:33 -34.72491 140.78285 40325 ft 418 kts 266°
2026-04-24 21:34 -34.72795 140.71242 40328 ft 417 kts 266°
2026-04-24 21:34 -34.73093 140.64214 40050 ft 413 kts 266°
2026-04-24 21:34 -34.73240 140.60720 39482 ft 414 kts 266°
2026-04-24 21:35 -34.73387 140.57226 38915 ft 415 kts 267°
2026-04-24 21:35 -34.73532 140.53721 38260 ft 416 kts 267°
2026-04-24 21:35 -34.73676 140.50203 37616 ft 417 kts 267°
2026-04-24 21:35 -34.73820 140.46681 36996 ft 418 kts 267°
2026-04-24 21:36 -34.73964 140.43147 36395 ft 419 kts 267°
2026-04-24 21:36 -34.74107 140.39600 35817 ft 420 kts 267°
2026-04-24 21:36 -34.74249 140.36055 35244 ft 421 kts 268°
2026-04-24 21:36 -34.74390 140.32499 34682 ft 422 kts 268°
2026-04-24 21:37 -34.74531 140.28925 34098 ft 424 kts 268°
2026-04-24 21:37 -34.74670 140.25341 33469 ft 425 kts 268°
2026-04-24 21:37 -34.74810 140.21744 32850 ft 426 kts 268°
2026-04-24 21:37 -34.74949 140.18149 32248 ft 426 kts 268°
2026-04-24 21:38 -34.75085 140.14592 31660 ft 426 kts 268°
2026-04-24 21:38 -34.75223 140.10948 31083 ft 426 kts 268°
2026-04-24 21:38 -34.75358 140.07359 30522 ft 425 kts 268°
2026-04-24 21:38 -34.75491 140.03825 29895 ft 423 kts 268°
2026-04-24 21:39 -34.75623 140.00254 29243 ft 422 kts 268°
2026-04-24 21:39 -34.75754 139.96695 28607 ft 420 kts 268°
2026-04-24 21:39 -34.75884 139.93154 27998 ft 418 kts 268°
2026-04-24 21:39 -34.76012 139.89628 27391 ft 416 kts 268°
2026-04-24 21:40 -34.76138 139.86121 26796 ft 414 kts 268°
2026-04-24 21:40 -34.76262 139.82636 26214 ft 412 kts 268°
2026-04-24 21:40 -34.76385 139.79161 25654 ft 409 kts 268°
2026-04-24 21:40 -34.76506 139.75709 25135 ft 406 kts 268°
2026-04-24 21:41 -34.76626 139.72295 24630 ft 403 kts 268°
2026-04-24 21:41 -34.76743 139.68896 24130 ft 401 kts 268°
2026-04-24 21:41 -34.76858 139.65518 23589 ft 398 kts 269°
2026-04-24 21:41 -34.76972 139.62168 22995 ft 396 kts 269°
2026-04-24 21:42 -34.77083 139.58863 22433 ft 395 kts 269°
2026-04-24 21:42 -34.77197 139.55481 21860 ft 395 kts 269°
2026-04-24 21:42 -34.77307 139.52146 21297 ft 394 kts 269°
2026-04-24 21:42 -34.77413 139.48864 20786 ft 394 kts 269°
2026-04-24 21:43 -34.77524 139.45494 20315 ft 410 kts 269°
2026-04-24 21:43 -34.77826 139.41932 19825 ft 440 kts 260°
2026-04-24 21:43 -34.78764 139.38293 19352 ft 462 kts 249°
2026-04-24 21:43 -34.80133 139.34710 18904 ft 466 kts 246°
2026-04-24 21:44 -34.81509 139.31196 18442 ft 454 kts 247°
2026-04-24 21:44 -34.82817 139.27751 17923 ft 442 kts 248°
2026-04-24 21:44 -34.84073 139.24388 17406 ft 431 kts 248°
2026-04-24 21:44 -34.85316 139.21103 16904 ft 424 kts 247°
2026-04-24 21:45 -34.86555 139.17863 16406 ft 420 kts 247°
2026-04-24 21:45 -34.87776 139.14645 15914 ft 418 kts 248°
2026-04-24 21:45 -34.88992 139.11426 15428 ft 417 kts 248°
2026-04-24 21:45 -34.90199 139.08225 14939 ft 416 kts 247°
2026-04-24 21:46 -34.91407 139.05032 14472 ft 414 kts 247°
2026-04-24 21:46 -34.92613 139.01845 13926 ft 414 kts 247°
2026-04-24 21:46 -34.93815 138.98650 13283 ft 415 kts 247°
2026-04-24 21:46 -34.95021 138.95449 12653 ft 416 kts 247°
2026-04-24 21:47 -34.96216 138.92267 12041 ft 410 kts 248°
2026-04-24 21:47 -34.96983 138.90220 11635 ft 388 kts 247°
2026-04-24 21:47 -34.98394 138.86474 10839 ft 342 kts 248°
2026-04-24 21:47 -34.99349 138.83937 10244 ft 318 kts 248°
2026-04-24 21:48 -35.00239 138.81556 9643 ft 299 kts 249°
2026-04-24 21:48 -35.01081 138.79305 9064 ft 284 kts 249°
2026-04-24 21:48 -35.01885 138.77157 8492 ft 272 kts 250°
2026-04-24 21:48 -35.02656 138.75099 7939 ft 263 kts 250°
2026-04-24 21:49 -35.03404 138.73097 7376 ft 256 kts 250°
2026-04-24 21:49 -35.04135 138.71138 6849 ft 252 kts 250°
2026-04-24 21:49 -35.04866 138.69177 6411 ft 256 kts 251°
2026-04-24 21:49 -35.05611 138.67180 6166 ft 261 kts 251°
2026-04-24 21:50 -35.06367 138.65145 5911 ft 266 kts 251°
2026-04-24 21:50 -35.07143 138.63069 5661 ft 270 kts 251°
2026-04-24 21:50 -35.07927 138.60968 5422 ft 274 kts 251°
2026-04-24 21:50 -35.08717 138.58843 5182 ft 276 kts 251°
2026-04-24 21:51 -35.09517 138.56695 4944 ft 279 kts 251°
2026-04-24 21:51 -35.10308 138.54574 4697 ft 277 kts 251°
2026-04-24 21:51 -35.11101 138.52438 4424 ft 275 kts 251°
2026-04-24 21:51 -35.11868 138.50383 4125 ft 256 kts 252°
2026-04-24 21:52 -35.12575 138.48480 3824 ft 238 kts 254°
2026-04-24 21:52 -35.12984 138.46610 3506 ft 220 kts 270°
2026-04-24 21:52 -35.12936 138.44832 3241 ft 201 kts 285°
2026-04-24 21:52 -35.12544 138.43263 3120 ft 187 kts 298°
2026-04-24 21:53 -35.11878 138.41917 2992 ft 185 kts 311°
2026-04-24 21:53 -35.10994 138.40838 2973 ft 174 kts 323°
2026-04-24 21:53 -35.10041 138.40009 2971 ft 165 kts 324°
2026-04-24 21:53 -35.09126 138.39193 2974 ft 162 kts 324°
2026-04-24 21:54 -35.08216 138.38384 2974 ft 162 kts 324°
2026-04-24 21:54 -35.07233 138.37727 2972 ft 162 kts 343°
2026-04-24 21:54 -35.06100 138.37700 2969 ft 167 kts
2026-04-24 21:54 -35.05023 138.38349 2811 ft 182 kts 34°
2026-04-24 21:55 -35.04178 138.39547 2574 ft 186 kts 44°
2026-04-24 21:55 -35.03371 138.40755 2323 ft 181 kts 43°
2026-04-24 21:55 -35.02579 138.41914 2081 ft 174 kts 43°
2026-04-24 21:55 -35.01825 138.43018 1843 ft 165 kts 43°
2026-04-24 21:56 -35.01104 138.44068 1618 ft 158 kts 44°
2026-04-24 21:56 -35.00409 138.45077 1408 ft 151 kts 46°
2026-04-24 21:56 -34.99769 138.46013 1207 ft 136 kts 46°
2026-04-24 21:56 -34.99177 138.46875 1026 ft 130 kts 47°
2026-04-24 21:57 -34.98604 138.47708 847 ft 127 kts 51°
2026-04-24 21:57 -34.98048 138.48522 684 ft 122 kts 48°
2026-04-24 21:57 -34.97497 138.49322 517 ft 124 kts 45°
2026-04-24 21:57 -34.96956 138.50117 425 ft 118 kts 46°
2026-04-24 21:58 -34.96422 138.50907 303 ft 126 kts 46°
2026-04-24 21:58 -34.95845 138.51731 82 ft 128 kts 46°
2026-04-24 21:58 -34.95311 138.52511 21 ft 109 kts 51°
2026-04-24 21:58 -34.94881 138.53136 20 ft 67 kts 50°
2026-04-24 21:59 -34.94743 138.53314 20 ft 15 kts 357°
2026-04-24 21:59 -34.94670 138.53206 20 ft 20 kts 304°
2026-04-24 21:59 -34.94572 138.53127 20 ft 20 kts 21°
2026-04-24 21:59 -34.94460 138.53123 20 ft 16 kts 299°
2026-04-24 22:00 -34.94387 138.52989 20 ft 22 kts 303°
2026-04-24 22:00 -34.94242 138.52926 20 ft 26 kts 11°
2026-04-24 22:00 -34.94094 138.52933 20 ft 20 kts
2026-04-24 22:00 -34.93955 138.52964 20 ft 17 kts 10°
2026-04-24 22:01 -34.93921 138.53019 20 ft 7 kts 140°
2026-04-24 22:01 -34.93922 138.53054 20 ft 0 kts 41°